DB0TGO-14 Weather Reports


Display with metric or nautical units.
time (UTC)temp
F
wind
direction
speed
MPH
gust
MPH
rain 1hr
in
rain 24hr
in
rain mn
in
humidity
%
barometer
mb
20260504080600 68 292 6.0 10.0 0.00 0.00 0.00 65 1013.5
20260504080410 67 270 5.0 10.0 0.00 0.00 0.00 63 1013.4
20260504080225 67 225 5.0 9.0 0.00 0.00 0.00 65 1013.4
20260504070335 65 292 5.0 8.0 0.00 0.00 0.00 66 1013.0
20260504070248 65 270 4.0 8.0 0.00 0.00 0.00 66 1013.0
20260504070136 65 270 4.0 8.0 0.00 0.00 0.00 66 1012.9
20260504060210 64 270 5.0 7.0 0.00 0.00 0.00 67 1012.8
20260504050730 62 202 2.0 4.0 0.00 0.00 0.00 67 1012.3
20260504050530 62 202 2.0 5.0 0.00 0.00 0.00 67 1012.4
20260504050344 61 270 2.0 5.0 0.00 0.00 0.00 67 1012.4
20260504050145 62 225 2.0 5.0 0.00 0.00 0.00 67 1012.4
20260504045955 62 225 2.0 5.0 0.00 0.00 0.00 67 1012.3
20260504045755 62 225 2.0 5.0 0.00 0.00 0.00 67 1012.2
20260504045600 62 270 2.0 4.0 0.00 0.00 0.00 67 1012.2
20260504045411 62 270 2.0 4.0 0.00 0.00 0.00 67 1012.2
20260504045223 62 270 2.0 4.0 0.00 0.00 0.00 67 1012.1
20260504045025 62 248 2.0 4.0 0.00 0.00 0.00 67 1012.2
20260504044835 62 225 2.0 5.0 0.00 0.00 0.00 67 1012.1
20260504044655 62 248 2.0 4.0 0.00 0.00 0.00 66 1012.2
20260504044518 62 225 2.0 4.0 0.00 0.00 0.00 66 1012.1
20260504044330 62 225 2.0 4.0 0.00 0.00 0.00 66 1012.1
20260504044145 62 225 2.0 4.0 0.00 0.00 0.00 66 1012.2
20260504044043 62 225 2.0 3.0 0.00 0.00 0.00 66 1012.1
20260504043944 62 225 2.0 5.0 0.00 0.00 0.00 66 1012.1
20260504043748 62 270 2.0 5.0 0.00 0.00 0.00 66 1012.1
20260504043610 62 248 3.0 5.0 0.00 0.00 0.00 66 1012.1
20260504043410 62 225 3.0 5.0 0.00 0.00 0.00 66 1012.1
20260504043224 62 248 3.0 5.0 0.00 0.00 0.00 66 1012.0
20260504043045 62 248 2.0 5.0 0.00 0.00 0.00 65 1012.0
20260504042855 61 225 2.0 5.0 0.00 0.00 0.00 66 1012.0
20260504042710 61 180 2.0 5.0 0.00 0.00 0.00 66 1012.0
20260504042529 61 225 2.0 3.0 0.00 0.00 0.00 67 1011.9
20260504042342 61 225 2.0 3.0 0.00 0.00 0.00 67 1011.9
20260504042304 61 225 2.0 3.0 0.00 0.00 0.00 67 1011.9
20260504042145 61 225 1.0 3.0 0.00 0.00 0.00 67 1011.9
20260504041950 61 225 1.0 3.0 0.00 0.00 0.00 68 1011.8
20260504041757 60 225 1.0 3.0 0.00 0.00 0.00 68 1011.9
20260504041615 60 225 1.0 3.0 0.00 0.00 0.00 69 1011.8
20260504041418 60 225 0.0 3.0 0.00 0.00 0.00 69 1011.8
20260504041229 60 225 0.0 3.0 0.00 0.00 0.00 70 1011.9
20260504041050 60 225 0.0 3.0 0.00 0.00 0.00 71 1011.8
20260504040710 60 0 0.0 0.0 0.00 0.00 0.00 73 1011.8
20260504040530 60 0 0.0 0.0 0.00 0.00 0.00 73 1011.8
20260504040350 60 0 0.0 0.0 0.00 0.00 0.00 73 1011.7
20260504040210 60 0 0.0 0.0 0.00 0.00 0.00 74 1011.7
20260504040010 60 0 0.0 0.0 0.00 0.00 0.00 74 1011.7
20260504035818 60 0 0.0 0.0 0.00 0.00 0.00 74 1011.8
20260504035621 60 0 0.0 0.0 0.00 0.00 0.00 73 1011.7
20260504035444 60 0 0.0 0.0 0.00 0.00 0.00 74 1011.7
20260504035300 60 0 0.0 0.0 0.00 0.00 0.00 73 1011.6
20260504035101 61 0 0.0 0.0 0.00 0.00 0.00 73 1011.8
20260504035035 61 0 0.0 0.0 0.00 0.00 0.00 73 1011.8
20260504034925 61 0 0.0 0.0 0.00 0.00 0.00 73 1011.8
20260504034745 61 0 0.0 0.0 0.00 0.00 0.00 73 1011.7
20260504034600 61 0 0.0 0.0 0.00 0.00 0.00 72 1011.6
20260504034400 61 0 0.0 0.0 0.00 0.00 0.00 71 1011.6
20260504034205 61 0 0.0 0.0 0.00 0.00 0.00 70 1011.7
20260504034030 61 0 0.0 0.0 0.00 0.00 0.00 70 1011.7
20260504033841 61 0 0.0 0.0 0.00 0.00 0.00 69 1011.7
20260504033700 62 0 0.0 0.0 0.00 0.00 0.00 69 1011.6
20260504033520 62 0 0.0 0.0 0.00 0.00 0.00 69 1011.6
20260504033343 62 0 0.0 0.0 0.00 0.00 0.00 67 1011.6
20260504033310 62 0 0.0 0.0 0.00 0.00 0.00 67 1011.7
20260504033148 62 0 0.0 0.0 0.00 0.00 0.00 67 1011.7
20260504033005 62 0 0.0 0.0 0.00 0.00 0.00 66 1011.6
20260504032825 62 0 0.0 0.0 0.00 0.00 0.00 66 1011.6
20260504032635 62 0 0.0 0.0 0.00 0.00 0.00 65 1011.7
20260504032439 62 158 0.0 0.0 0.00 0.00 0.00 65 1011.8
20260504032245 62 158 0.0 0.0 0.00 0.00 0.00 65 1011.8
20260504032105 62 158 0.0 2.0 0.00 0.00 0.00 65 1011.9
20260504031929 62 158 0.0 2.0 0.00 0.00 0.00 65 1011.9
20260504031745 62 158 1.0 2.0 0.00 0.00 0.00 65 1011.8
20260504031657 62 158 1.0 2.0 0.00 0.00 0.00 65 1011.9
20260504031600 62 158 1.0 2.0 0.00 0.00 0.00 65 1011.9
20260504031420 62 158 1.0 1.0 0.00 0.00 0.00 65 1011.9
20260504031228 62 158 2.0 4.0 0.00 0.00 0.00 65 1011.9
20260504031034 62 158 2.0 4.0 0.00 0.00 0.00 65 1012.1
20260504030900 62 158 2.0 4.0 0.00 0.00 0.00 65 1012.2
20260504030700 62 202 1.0 5.0 0.00 0.00 0.00 65 1012.2
20260504030510 62 202 1.0 5.0 0.00 0.00 0.00 65 1012.2
20260504030330 62 202 1.0 5.0 0.00 0.00 0.00 65 1012.1
20260504030130 62 292 0.0 2.0 0.00 0.00 0.00 65 1012.1
20260504025940 62 0 0.0 1.0 0.00 0.00 0.00 66 1012.0
20260504025827 62 0 0.0 2.0 0.00 0.00 0.00 65 1012.0
20260504025758 62 0 0.0 2.0 0.00 0.00 0.00 65 1012.0
20260504025620 62 292 0.0 0.0 0.00 0.00 0.00 66 1011.9
20260504025434 62 292 0.0 0.0 0.00 0.00 0.00 66 1012.0
20260504025250 62 292 0.0 0.0 0.00 0.00 0.00 65 1012.0
20260504025108 62 292 0.0 2.0 0.00 0.00 0.00 64 1012.1
20260504024931 62 292 0.0 2.0 0.00 0.00 0.00 63 1012.0
20260504024745 62 292 0.0 2.0 0.00 0.00 0.00 64 1012.1
20260504024551 62 292 0.0 2.0 0.00 0.00 0.00 64 1012.1
20260504024410 62 292 0.0 0.0 0.00 0.00 0.00 63 1012.0
20260504024220 62 292 0.0 0.0 0.00 0.00 0.00 63 1011.9
20260504024025 62 292 0.0 2.0 0.00 0.00 0.00 62 1011.9
20260504023936 62 292 0.0 2.0 0.00 0.00 0.00 62 1011.9
20260504023844 62 292 1.0 2.0 0.00 0.00 0.00 62 1012.0
20260504023705 62 292 1.0 2.0 0.00 0.00 0.00 62 1012.0
20260504023512 62 292 1.0 2.0 0.00 0.00 0.00 62 1012.0
20260504023320 63 248 1.0 2.0 0.00 0.00 0.00 61 1012.0
20260504023125 63 248 1.0 2.0 0.00 0.00 0.00 61 1012.1
20260504022938 63 248 1.0 3.0 0.00 0.00 0.00 61 1012.0
20260504022755 63 270 1.0 3.0 0.00 0.00 0.00 61 1012.0
20260504022605 63 270 2.0 3.0 0.00 0.00 0.00 61 1012.1
20260504022405 63 270 2.0 3.0 0.00 0.00 0.00 61 1012.1
20260504022210 63 270 2.0 3.0 0.00 0.00 0.00 60 1012.1
20260504022137 63 248 2.0 3.0 0.00 0.00 0.00 60 1012.1
20260504022010 63 248 2.0 3.0 0.00 0.00 0.00 60 1012.1
20260504021827 63 248 2.0 3.0 0.00 0.00 0.00 60 1012.0
20260504021648 63 248 2.0 3.0 0.00 0.00 0.00 60 1012.1
20260504021450 63 248 2.0 3.0 0.00 0.00 0.00 59 1012.0
20260504021249 63 248 2.0 4.0 0.00 0.00 0.00 59 1012.1
20260504021050 63 270 2.0 3.0 0.00 0.00 0.00 58 1012.1
20260504020905 63 248 2.0 3.0 0.00 0.00 0.00 58 1012.1
20260504020710 63 248 2.0 3.0 0.00 0.00 0.00 58 1012.0
20260504020518 63 248 2.0 3.0 0.00 0.00 0.00 57 1011.9
20260504020320 63 248 2.0 3.0 0.00 0.00 0.00 57 1012.0
20260504020301 63 270 1.0 3.0 0.00 0.00 0.00 57 1012.1
20260504020135 63 225 1.0 3.0 0.00 0.00 0.00 57 1011.9
20260504015945 64 225 1.0 3.0 0.00 0.00 0.00 57 1011.8
20260504015805 64 225 1.0 3.0 0.00 0.00 0.00 57 1011.8
20260504015615 64 225 0.0 2.0 0.00 0.00 0.00 56 1011.8
20260504015440 64 225 0.0 2.0 0.00 0.00 0.00 56 1011.8
20260504015300 64 270 0.0 0.0 0.00 0.00 0.00 57 1011.8
20260504015111 64 270 0.0 0.0 0.00 0.00 0.00 56 1011.7
20260504014915 64 270 1.0 2.0 0.00 0.00 0.00 56 1011.8
20260504014714 64 270 1.0 2.0 0.00 0.00 0.00 56 1011.7
20260504014650 64 270 1.0 3.0 0.00 0.00 0.00 56 1011.8
20260504014525 64 270 2.0 3.0 0.00 0.00 0.00 55 1011.8
20260504014333 64 270 2.0 3.0 0.00 0.00 0.00 55 1011.8
20260504014140 64 270 2.0 3.0 0.00 0.00 0.00 55 1011.9
20260504013950 64 270 2.0 3.0 0.00 0.00 0.00 55 1011.9
20260504013805 64 270 2.0 5.0 0.00 0.00 0.00 55 1011.8
20260504013605 64 292 2.0 5.0 0.00 0.00 0.00 55 1011.8
20260504013405 64 248 2.0 5.0 0.00 0.00 0.00 54 1011.8
20260504013210 64 270 2.0 5.0 0.00 0.00 0.00 54 1011.8
20260504013025 64 292 2.0 5.0 0.00 0.00 0.00 54 1011.8
20260504012851 64 248 2.0 5.0 0.00 0.00 0.00 54 1011.8
20260504012825 64 270 2.0 5.0 0.00 0.00 0.00 54 1011.8
20260504012639 64 248 1.0 3.0 0.00 0.00 0.00 55 1011.8
20260504012500 64 248 1.0 3.0 0.00 0.00 0.00 55 1011.8
20260504012315 64 248 1.0 3.0 0.00 0.00 0.00 55 1011.8
20260504012118 64 270 0.0 2.0 0.00 0.00 0.00 55 1011.7
20260504011934 64 270 0.0 2.0 0.00 0.00 0.00 55 1011.7
20260504011745 64 270 0.0 2.0 0.00 0.00 0.00 55 1011.6
20260504011544 64 270 0.0 2.0 0.00 0.00 0.00 55 1011.6
20260504011400 64 270 0.0 2.0 0.00 0.00 0.00 56 1011.5
20260504011251 64 270 0.0 2.0 0.00 0.00 0.00 55 1011.5
20260504011218 64 270 0.0 2.0 0.00 0.00 0.00 55 1011.5
20260504011020 64 292 0.0 2.0 0.00 0.00 0.00 56 1011.5
20260504010843 64 292 0.0 2.0 0.00 0.00 0.00 55 1011.5
20260504010700 64 292 1.0 2.0 0.00 0.00 0.00 54 1011.5
20260504010514 64 292 1.0 3.0 0.00 0.00 0.00 55 1011.5
20260504010325 64 292 1.0 3.0 0.00 0.00 0.00 55 1011.5
20260504010135 64 292 1.0 3.0 0.00 0.00 0.00 55 1011.5
20260504005948 64 292 1.0 2.0 0.00 0.00 0.00 55 1011.5
20260504005748 65 292 1.0 1.0 0.00 0.00 0.00 55 1011.4
20260504005600 65 292 1.0 2.0 0.00 0.00 0.00 54 1011.5
20260504005517 65 292 1.0 2.0 0.00 0.00 0.00 54 1011.5
20260504005218 65 292 1.0 2.0 0.00 0.00 0.00 54 1011.5
20260504005031 65 292 1.0 2.0 0.00 0.00 0.00 53 1011.5
20260504004849 65 292 1.0 2.0 0.00 0.00 0.00 53 1011.5
20260504004710 65 270 1.0 2.0 0.00 0.00 0.00 52 1011.6
20260504004518 65 270 1.0 2.0 0.00 0.00 0.00 51 1011.5
20260504004339 66 270 1.0 3.0 0.00 0.00 0.00 51 1011.5
20260504004145 66 270 1.0 3.0 0.00 0.00 0.00 50 1011.4
20260504003947 66 270 1.0 3.0 0.00 0.00 0.00 50 1011.4
20260504003748 66 270 0.0 1.0 0.00 0.00 0.00 49 1011.4
20260504003654 66 270 0.0 2.0 0.00 0.00 0.00 49 1011.5
20260504003555 66 270 0.0 2.0 0.00 0.00 0.00 49 1011.4
20260504003419 66 270 0.0 2.0 0.00 0.00 0.00 49 1011.4
20260504003240 66 270 0.0 2.0 0.00 0.00 0.00 49 1011.4
20260504003050 66 0 0.0 1.0 0.00 0.00 0.00 50 1011.4
20260504002910 66 0 0.0 1.0 0.00 0.00 0.00 50 1011.3
20260504002712 66 0 0.0 1.0 0.00 0.00 0.00 50 1011.4
20260504002514 66 270 0.0 1.0 0.00 0.00 0.00 50 1011.3
20260504002318 66 270 0.0 0.0 0.00 0.00 0.00 49 1011.3
20260504002125 67 270 0.0 2.0 0.00 0.00 0.00 49 1011.2
20260504001945 67 270 0.0 2.0 0.00 0.00 0.00 49 1011.2
20260504001825 67 270 0.0 2.0 0.00 0.00 0.00 48 1011.2
20260504001805 67 270 0.0 2.0 0.00 0.00 0.00 48 1011.2
20260504001605 67 270 0.0 2.0 0.00 0.00 0.00 48 1011.2
20260504001414 67 270 1.0 2.0 0.00 0.00 0.00 48 1011.2
20260504001225 67 270 2.0 2.0 0.00 0.00 0.00 48 1011.3
20260504001028 67 270 2.0 3.0 0.00 0.00 0.00 48 1011.3
20260504000847 67 270 3.0 5.0 0.00 0.00 0.00 48 1011.3
20260504000650 67 270 3.0 5.0 0.00 0.00 0.00 47 1011.5
20260504000505 67 292 3.0 5.0 0.00 0.00 0.00 46 1011.5
20260504000328 68 248 3.0 5.0 0.00 0.00 0.00 47 1011.4
20260504000127 68 292 3.0 5.0 0.00 0.00 0.00 47 1011.4
20260504000115 68 292 3.0 5.0 0.00 0.00 0.00 47 1011.5
20260503235926 68 315 3.0 5.0 0.00 0.00 0.00 47 1011.6
20260503235745 68 292 3.0 5.0 0.00 0.00 0.00 46 1011.5
20260503235605 68 270 3.0 5.0 0.00 0.00 0.00 46 1011.6
20260503235413 68 270 4.0 8.0 0.00 0.00 0.00 46 1011.6
20260503235220 68 270 4.0 8.0 0.00 0.00 0.00 46 1011.5
20260503235020 68 270 4.0 8.0 0.00 0.00 0.00 46 1011.5
20260503234820 68 292 5.0 6.0 0.00 0.00 0.00 45 1011.4
20260503234620 68 248 5.0 7.0 0.00 0.00 0.00 45 1011.5
20260503234434 68 22 5.0 7.0 0.00 0.00 0.00 45 1011.5
20260503234358 68 270 5.0 7.0 0.00 0.00 0.00 45 1011.5
20260503234249 68 292 4.0 8.0 0.00 0.00 0.00 45 1011.5
20260503234105 68 292 4.0 9.0 0.00 0.00 0.00 44 1011.5
20260503233925 68 292 4.0 9.0 0.00 0.00 0.00 44 1011.5
20260503233725 68 315 4.0 9.0 0.00 0.00 0.00 44 1011.4
20260503233540 68 292 4.0 6.0 0.00 0.00 0.00 45 1011.5
20260503233400 68 225 4.0 8.0 0.00 0.00 0.00 44 1011.5
20260503233208 68 248 5.0 8.0 0.00 0.00 0.00 44 1011.5
20260503233015 68 248 5.0 8.0 0.00 0.00 0.00 44 1011.6
20260503232815 68 315 5.0 7.0 0.00 0.00 0.00 44 1011.6
20260503232618 68 270 5.0 8.0 0.00 0.00 0.00 45 1011.7
20260503232547 68 270 5.0 8.0 0.00 0.00 0.00 44 1011.6
20260503232440 68 315 5.0 8.0 0.00 0.00 0.00 45 1011.7
20260503232240 68 292 5.0 8.0 0.00 0.00 0.00 45 1011.8
20260503232052 68 292 5.0 7.0 0.00 0.00 0.00 44 1011.7
20260503231908 68 292 4.0 6.0 0.00 0.00 0.00 45 1011.7
20260503231730 68 292 3.0 8.0 0.00 0.00 0.00 46 1011.7
20260503231555 67 248 3.0 8.0 0.00 0.00 0.00 46 1011.6
20260503231400 67 270 2.0 8.0 0.00 0.00 0.00 48 1011.7
20260503231225 67 292 1.0 3.0 0.00 0.00 0.00 51 1011.7
20260503231036 68 292 1.0 2.0 0.00 0.00 0.00 50 1011.7
20260503230831 68 225 1.0 2.0 0.00 0.00 0.00 50 1011.7
20260503230650 68 225 1.0 2.0 0.00 0.00 0.00 49 1011.7
20260503230500 68 225 1.0 2.0 0.00 0.00 0.00 49 1011.7
20260503230300 68 225 2.0 2.0 0.00 0.00 0.00 48 1011.7
20260503230100 68 225 2.0 4.0 0.00 0.00 0.00 48 1011.7
20260503225910 68 225 2.0 4.0 0.00 0.00 0.00 48 1011.7
20260503225720 68 225 2.0 4.0 0.00 0.00 0.00 48 1011.7
20260503225529 68 270 2.0 4.0 0.00 0.00 0.00 48 1011.7
20260503225348 68 270 2.0 4.0 0.00 0.00 0.00 48 1011.8
20260503225256 68 270 2.0 4.0 0.00 0.00 0.00 48 1011.7
20260503225148 68 292 2.0 4.0 0.00 0.00 0.00 47 1011.7
20260503225002 68 202 2.0 4.0 0.00 0.00 0.00 48 1011.8
20260503224822 68 225 2.0 3.0 0.00 0.00 0.00 48 1011.7
20260503224637 68 248 2.0 3.0 0.00 0.00 0.00 49 1011.7
20260503224450 68 248 2.0 3.0 0.00 0.00 0.00 50 1011.7
20260503224255 69 248 2.0 3.0 0.00 0.00 0.00 51 1011.7
20260503224115 69 202 3.0 5.0 0.00 0.00 0.00 51 1011.7
20260503223925 69 202 3.0 5.0 0.00 0.00 0.00 51 1011.8
20260503223740 69 202 3.0 5.0 0.00 0.00 0.00 48 1011.7
20260503223615 69 225 3.0 5.0 0.00 0.00 0.00 48 1011.7
20260503223549 69 225 3.0 5.0 0.00 0.00 0.00 48 1011.6
20260503223405 69 225 3.0 5.0 0.00 0.00 0.00 47 1011.6
20260503223205 69 202 3.0 5.0 0.00 0.00 0.00 47 1011.6
20260503223025 69 248 2.0 5.0 0.00 0.00 0.00 46 1011.5
20260503222838 69 270 2.0 4.0 0.00 0.00 0.00 47 1011.5
20260503222649 68 270 3.0 4.0 0.00 0.00 0.00 47 1011.5
20260503222453 68 202 3.0 5.0 0.00 0.00 0.00 49 1011.6
20260503222315 68 270 2.0 5.0 0.00 0.00 0.00 49 1011.5
20260503222135 68 248 2.0 5.0 0.00 0.00 0.00 50 1011.5
20260503222026 68 202 2.0 5.0 0.00 0.00 0.00 50 1011.5
20260503221940 68 225 2.0 5.0 0.00 0.00 0.00 50 1011.5
20260503221745 68 202 2.0 5.0 0.00 0.00 0.00 50 1011.5
20260503221545 68 202 1.0 3.0 0.00 0.00 0.00 52 1011.5
20260503221348 68 248 1.0 3.0 0.00 0.00 0.00 53 1011.5
20260503221148 68 248 1.0 3.0 0.00 0.00 0.00 51 1011.5
20260503220959 68 158 2.0 3.0 0.00 0.00 0.00 52 1011.4
20260503220805 68 158 2.0 3.0 0.00 0.00 0.00 52 1011.4
20260503220608 68 202 2.0 3.0 0.00 0.00 0.00 51 1011.4
20260503220428 68 225 2.0 3.0 0.00 0.00 0.00 49 1011.4
20260503220242 68 248 2.0 3.0 0.00 0.00 0.00 48 1011.3
20260503220240 68 248 2.0 3.0 0.00 0.00 0.00 48 1011.4
20260503220049 68 248 2.0 3.0 0.00 0.00 0.00 48 1011.3
20260503215854 68 248 2.0 3.0 0.00 0.00 0.00 50 1011.2
20260503215715 68 248 2.0 2.0 0.00 0.00 0.00 50 1011.1
20260503215520 69 248 2.0 3.0 0.00 0.00 0.00 49 1011.2
20260503215343 69 292 2.0 5.0 0.00 0.00 0.00 50 1011.1
20260503215200 69 292 2.0 5.0 0.00 0.00 0.00 49 1011.1
20260503215020 69 292 2.0 5.0 0.00 0.00 0.00 50 1011.1
20260503214842 69 292 3.0 5.0 0.00 0.00 0.00 49 1011.1
20260503214650 69 270 3.0 5.0 0.00 0.00 0.00 51 1011.0
20260503214515 69 270 3.0 5.0 0.00 0.00 0.00 50 1011.0
20260503214457 69 270 3.0 5.0 0.00 0.00 0.00 51 1011.0
20260503214305 69 292 3.0 5.0 0.00 0.00 0.00 48 1011.1
20260503214114 69 225 3.0 5.0 0.00 0.00 0.00 47 1011.3
20260503213920 69 248 2.0 5.0 0.00 0.00 0.00 46 1011.2
20260503213740 69 248 2.0 4.0 0.00 0.00 0.00 46 1011.1
20260503213540 69 248 2.0 5.0 0.00 0.00 0.00 47 1011.0
20260503213400 69 292 1.0 5.0 0.00 0.00 0.00 47 1010.9
20260503213218 69 270 1.0 5.0 0.00 0.00 0.00 47 1010.9
20260503213031 69 292 1.0 3.0 0.00 0.00 0.00 47 1010.9
20260503213005 69 292 1.0 3.0 0.00 0.00 0.00 48 1010.9
20260503212849 69 248 1.0 2.0 0.00 0.00 0.00 48 1011.0
20260503212648 69 248 0.0 1.0 0.00 0.00 0.00 49 1011.0
20260503212508 69 248 0.0 1.0 0.00 0.00 0.00 47 1011.0
20260503212308 69 248 0.0 1.0 0.00 0.00 0.00 47 1011.0
20260503212121 69 248 0.0 1.0 0.00 0.00 0.00 50 1010.9
20260503211925 69 248 0.0 2.0 0.00 0.00 0.00 49 1011.0
20260503211740 69 0 0.0 0.0 0.00 0.00 0.00 49 1011.0
20260503211538 69 248 0.0 0.0 0.00 0.00 0.00 47 1010.8
20260503211349 69 248 0.0 0.0 0.00 0.00 0.00 48 1010.7
20260503211205 69 248 0.0 0.0 0.00 0.00 0.00 47 1010.8
20260503211122 69 248 0.0 0.0 0.00 0.00 0.00 47 1010.7
20260503211027 69 248 0.0 2.0 0.00 0.00 0.00 47 1010.7
20260503210848 69 248 0.0 2.0 0.00 0.00 0.00 46 1010.7
20260503210655 69 248 0.0 2.0 0.00 0.00 0.00 45 1010.8
20260503210508 69 225 0.0 2.0 0.00 0.00 0.00 45 1010.9
20260503210314 69 225 0.0 3.0 0.00 0.00 0.00 46 1010.8
20260503210138 69 225 0.0 2.0 0.00 0.00 0.00 46 1010.8
20260503205940 69 225 0.0 0.0 0.00 0.00 0.00 45 1010.7
20260503205740 69 225 0.0 2.0 0.00 0.00 0.00 45 1010.6
20260503205548 69 225 0.0 5.0 0.00 0.00 0.00 45 1010.6
20260503205405 69 202 1.0 5.0 0.00 0.00 0.00 44 1010.6
20260503205225 69 202 1.0 5.0 0.00 0.00 0.00 46 1010.7
20260503205205 69 202 1.0 5.0 0.00 0.00 0.00 45 1010.7
20260503205015 69 270 0.0 2.0 0.00 0.00 0.00 51 1010.6
20260503204815 69 270 0.0 2.0 0.00 0.00 0.00 52 1010.6
20260503204638 69 0 0.0 0.0 0.00 0.00 0.00 51 1010.6
20260503204458 69 0 0.0 0.0 0.00 0.00 0.00 51 1010.7
20260503204309 69 0 0.0 0.0 0.00 0.00 0.00 51 1010.7
20260503204115 69 0 0.0 0.0 0.00 0.00 0.00 49 1010.7
20260503203934 69 0 0.0 0.0 0.00 0.00 0.00 49 1010.8
20260503203732 69 0 0.0 0.0 0.00 0.00 0.00 48 1010.8
20260503203535 70 0 0.0 2.0 0.00 0.00 0.00 48 1010.7
20260503203508 70 0 0.0 2.0 0.00 0.00 0.00 48 1010.7
20260503203343 70 270 0.0 2.0 0.00 0.00 0.00 47 1010.7
20260503203145 70 270 0.0 1.0 0.00 0.00 0.00 47 1010.7
20260503202958 70 270 0.0 1.0 0.00 0.00 0.00 47 1010.6
20260503202803 70 270 0.0 2.0 0.00 0.00 0.00 47 1010.8
20260503202615 70 270 0.0 2.0 0.00 0.00 0.00 48 1010.7
20260503202414 70 270 0.0 2.0 0.00 0.00 0.00 48 1010.7
20260503202225 70 270 0.0 2.0 0.00 0.00 0.00 48 1010.7
20260503202025 70 270 0.0 2.0 0.00 0.00 0.00 47 1010.7
20260503201832 70 270 0.0 2.0 0.00 0.00 0.00 47 1010.7
20260503201652 70 270 0.0 2.0 0.00 0.00 0.00 48 1010.7
20260503201504 70 270 0.0 2.0 0.00 0.00 0.00 48 1010.7
20260503201319 70 270 0.0 2.0 0.00 0.00 0.00 48 1010.6
20260503201130 70 270 0.0 2.0 0.00 0.00 0.00 48 1010.7
20260503200948 70 270 0.0 2.0 0.00 0.00 0.00 48 1010.8
20260503200805 70 270 1.0 0.0 0.00 0.00 0.00 49 1010.7
20260503200620 70 270 1.0 2.0 0.00 0.00 0.00 48 1010.7
20260503200440 70 270 1.0 2.0 0.00 0.00 0.00 48 1010.8
20260503200300 71 270 1.0 3.0 0.00 0.00 0.00 48 1010.8
20260503200113 71 270 1.0 3.0 0.00 0.00 0.00 48 1010.8
20260503195927 71 292 1.0 3.0 0.00 0.00 0.00 48 1010.8
20260503195740 71 270 1.0 3.0 0.00 0.00 0.00 48 1010.9
20260503195555 71 270 1.0 3.0 0.00 0.00 0.00 48 1010.8
20260503195400 71 270 1.0 3.0 0.00 0.00 0.00 48 1010.8
20260503195215 71 248 1.0 2.0 0.00 0.00 0.00 48 1010.9
20260503195015 71 248 1.0 2.0 0.00 0.00 0.00 47 1010.8
20260503194829 71 248 2.0 2.0 0.00 0.00 0.00 47 1010.8
20260503194650 71 248 2.0 3.0 0.00 0.00 0.00 46 1010.8
20260503194509 71 248 2.0 3.0 0.00 0.00 0.00 46 1010.8
20260503194318 71 270 2.0 3.0 0.00 0.00 0.00 46 1010.8
20260503194135 71 270 2.0 3.0 0.00 0.00 0.00 46 1010.8
20260503193940 71 270 1.0 2.0 0.00 0.00 0.00 46 1010.8
20260503193800 71 270 1.0 2.0 0.00 0.00 0.00 45 1010.8
20260503193605 71 292 1.0 2.0 0.00 0.00 0.00 45 1010.8
20260503193415 72 270 2.0 2.0 0.00 0.00 0.00 45 1010.8
20260503193228 72 270 2.0 2.0 0.00 0.00 0.00 45 1010.8
20260503193045 72 270 2.0 2.0 0.00 0.00 0.00 45 1010.8
20260503192905 72 270 2.0 3.0 0.00 0.00 0.00 45 1010.7
20260503192812 72 270 2.0 3.0 0.00 0.00 0.00 45 1010.8
20260503192705 72 292 2.0 3.0 0.00 0.00 0.00 44 1010.8
20260503192517 72 292 1.0 3.0 0.00 0.00 0.00 44 1010.8
20260503192320 72 292 1.0 2.0 0.00 0.00 0.00 44 1010.7
20260503192125 72 292 1.0 3.0 0.00 0.00 0.00 44 1010.6
20260503191928 72 292 0.0 3.0 0.00 0.00 0.00 43 1010.6
20260503191748 72 292 0.0 3.0 0.00 0.00 0.00 44 1010.6
20260503191605 72 292 0.0 2.0 0.00 0.00 0.00 46 1010.6
20260503191425 72 292 0.0 2.0 0.00 0.00 0.00 46 1010.7
20260503191225 72 292 1.0 0.0 0.00 0.00 0.00 46 1010.6
20260503191025 72 292 1.0 2.0 0.00 0.00 0.00 45 1010.5
20260503191011 72 292 1.0 2.0 0.00 0.00 0.00 45 1010.5
20260503190835 72 292 1.0 2.0 0.00 0.00 0.00 45 1010.5
20260503190638 72 292 2.0 3.0 0.00 0.00 0.00 45 1010.6
20260503190445 72 292 2.0 3.0 0.00 0.00 0.00 42 1010.6
20260503190256 72 292 2.0 3.0 0.00 0.00 0.00 43 1010.5
20260503190115 72 270 1.0 2.0 0.00 0.00 0.00 44 1010.5
20260503185917 72 270 1.0 4.0 0.00 0.00 0.00 45 1010.5
20260503185720 72 225 1.0 4.0 0.00 0.00 0.00 48 1010.5
20260503185525 72 225 1.0 3.0 0.00 0.00 0.00 48 1010.4
20260503185446 72 270 1.0 3.0 0.00 0.00 0.00 47 1010.4
20260503185340 72 270 0.0 3.0 0.00 0.00 0.00 48 1010.4
20260503185156 72 270 0.0 2.0 0.00 0.00 0.00 48 1010.3
20260503185020 72 0 0.0 0.0 0.00 0.00 0.00 49 1010.3
20260503184845 73 0 0.0 0.0 0.00 0.00 0.00 48 1010.4
20260503184655 73 0 0.0 0.0 0.00 0.00 0.00 48 1010.3
20260503184500 73 0 0.0 0.0 0.00 0.00 0.00 47 1010.2
20260503184303 74 0 0.0 0.0 0.00 0.00 0.00 46 1010.2
20260503184109 74 0 0.0 0.0 0.00 0.00 0.00 45 1010.2
20260503183932 74 0 0.0 0.0 0.00 0.00 0.00 43 1010.2
20260503183901 74 0 0.0 0.0 0.00 0.00 0.00 43 1010.2
20260503183735 74 0 0.0 0.0 0.00 0.00 0.00 43 1010.2
20260503183537 75 0 0.0 0.0 0.00 0.00 0.00 43 1010.1
20260503183340 75 0 0.0 0.0 0.00 0.00 0.00 42 1010.1
20260503183157 75 0 0.0 0.0 0.00 0.00 0.00 41 1010.1
20260503183009 75 0 0.0 0.0 0.00 0.00 0.00 40 1010.1
20260503182825 75 0 0.0 0.0 0.00 0.00 0.00 40 1010.1
20260503182638 76 0 0.0 0.0 0.00 0.00 0.00 39 1010.1
20260503182450 76 0 0.0 0.0 0.00 0.00 0.00 40 1010.1
20260503182309 76 0 0.0 0.0 0.00 0.00 0.00 39 1010.1
20260503182202 76 0 0.0 0.0 0.00 0.00 0.00 40 1010.1
20260503182118 76 0 0.0 0.0 0.00 0.00 0.00 40 1010.1
20260503181940 76 0 0.0 0.0 0.00 0.00 0.00 40 1010.2
20260503181755 76 0 0.0 0.0 0.00 0.00 0.00 40 1010.1
20260503181608 77 0 0.0 0.0 0.00 0.00 0.00 40 1010.1
20260503181429 77 0 0.0 0.0 0.00 0.00 0.00 39 1010.1
20260503181245 77 0 0.0 0.0 0.00 0.00 0.00 38 1010.1
20260503181107 77 0 0.0 0.0 0.00 0.00 0.00 38 1010.1
20260503180918 77 0 0.0 0.0 0.00 0.00 0.00 38 1010.1
20260503180735 78 0 0.0 0.0 0.00 0.00 0.00 37 1010.1
20260503180548 78 0 0.0 0.0 0.00 0.00 0.00 37 1010.1
20260503180408 78 0 0.0 0.0 0.00 0.00 0.00 37 1010.1
20260503180228 78 0 0.0 0.0 0.00 0.00 0.00 37 1010.1
20260503180028 78 0 0.0 0.0 0.00 0.00 0.00 37 1010.0
20260503175841 79 0 0.0 0.0 0.00 0.00 0.00 36 1010.1
20260503175658 79 0 0.0 0.0 0.00 0.00 0.00 36 1010.1
20260503175505 79 0 0.0 0.0 0.00 0.00 0.00 36 1010.1
20260503175325 79 0 0.0 0.0 0.00 0.00 0.00 35 1010.0
20260503175138 79 0 0.0 0.0 0.00 0.00 0.00 35 1010.1
20260503174956 79 0 0.0 0.0 0.00 0.00 0.00 35 1010.1
20260503174826 80 0 0.0 0.0 0.00 0.00 0.00 35 1010.1
20260503174800 80 0 0.0 0.0 0.00 0.00 0.00 34 1010.0
20260503174618 80 0 0.0 0.0 0.00 0.00 0.00 35 1010.0
20260503174438 80 0 0.0 0.0 0.00 0.00 0.00 34 1010.0
20260503174240 80 0 0.0 0.0 0.00 0.00 0.00 34 1009.9
20260503174101 80 0 0.0 0.0 0.00 0.00 0.00 31 1010.0
20260503173918 80 0 0.0 0.0 0.00 0.00 0.00 31 1010.0
20260503173722 80 0 0.0 0.0 0.00 0.00 0.00 29 1010.1
20260503173540 80 0 0.0 0.0 0.00 0.00 0.00 29 1010.1
20260503173341 81 270 0.0 0.0 0.00 0.00 0.00 29 1010.0
20260503173221 81 270 0.0 0.0 0.00 0.00 0.00 29 1010.1
20260503173154 81 270 0.0 0.0 0.00 0.00 0.00 29 1010.1
20260503173003 81 270 0.0 0.0 0.00 0.00 0.00 29 1010.1
20260503172806 81 270 0.0 1.0 0.00 0.00 0.00 29 1010.0
20260503172625 82 270 0.0 1.0 0.00 0.00 0.00 28 1010.1
20260503172428 82 270 0.0 1.0 0.00 0.00 0.00 29 1010.1
20260503172235 82 270 0.0 2.0 0.00 0.00 0.00 29 1010.1
20260503172048 82 270 0.0 2.0 0.00 0.00 0.00 28 1010.0
20260503171909 82 270 1.0 2.0 0.00 0.00 0.00 27 1010.1
20260503171729 83 270 1.0 2.0 0.00 0.00 0.00 27 1010.1
20260503171706 83 270 1.0 2.0 0.00 0.00 0.00 27 1010.1
20260503171545 83 270 1.0 2.0 0.00 0.00 0.00 27 1010.0
20260503171350 84 270 1.0 2.0 0.00 0.00 0.00 27 1010.1
20260503171212 84 270 1.0 2.0 0.00 0.00 0.00 27 1010.1
20260503171020 85 270 2.0 3.0 0.00 0.00 0.00 26 1010.0
20260503170840 85 270 2.0 3.0 0.00 0.00 0.00 26 1010.1
20260503170651 86 270 1.0 3.0 0.00 0.00 0.00 26 1010.1
20260503170500 87 270 1.0 3.0 0.00 0.00 0.00 25 1010.1
20260503170320 87 270 2.0 3.0 0.00 0.00 0.00 24 1010.1
20260503170135 87 270 1.0 3.0 0.00 0.00 0.00 25 1010.1
20260503150945 85 248 5.0 10.0 0.00 0.00 0.00 26 1010.7
20260503150800 85 202 5.0 10.0 0.00 0.00 0.00 26 1010.7
20260503150605 85 292 5.0 10.0 0.00 0.00 0.00 26 1010.6
20260503150408 86 225 5.0 10.0 0.00 0.00 0.00 26 1010.6
20260503150227 86 248 5.0 10.0 0.00 0.00 0.00 24 1010.7
20260503140149 85 248 5.0 7.0 0.00 0.00 0.00 24 1011.2
20260503131349 84 292 6.0 10.0 0.00 0.00 0.00 23 1011.6
20260503131205 84 292 6.0 10.0 0.00 0.00 0.00 22 1011.6
20260503131020 84 270 6.0 11.0 0.00 0.00 0.00 23 1011.6
20260503130818 84 225 6.0 11.0 0.00 0.00 0.00 23 1011.7
20260503130620 84 248 6.0 11.0 0.00 0.00 0.00 22 1011.7
20260503130440 84 248 6.0 9.0 0.00 0.00 0.00 25 1011.8
20260503130248 84 248 6.0 8.0 0.00 0.00 0.00 25 1011.8
20260503130108 84 270 6.0 8.0 0.00 0.00 0.00 25 1011.9
20260503120155 82 202 7.0 10.0 0.00 0.00 0.00 28 1012.2
20260503110723 82 158 6.0 15.0 0.00 0.00 0.00 28 1012.6
20260503110545 82 202 7.0 15.0 0.00 0.00 0.00 28 1012.7
20260503110348 82 180 7.0 15.0 0.00 0.00 0.00 28 1012.7
20260503110203 82 270 6.0 10.0 0.00 0.00 0.00 28 1012.7
20260503100215 80 180 5.0 8.0 0.00 0.00 0.00 32 1013.3
20260503090447 77 248 4.0 5.0 0.00 0.00 0.00 36 1013.6
20260503090255 77 248 4.0 6.0 0.00 0.00 0.00 36 1013.7
20260503090108 77 270 4.0 8.0 0.00 0.00 0.00 36 1013.6
20260503081451 78 202 1.0 5.0 0.00 0.00 0.00 38 1013.8
20260503081305 78 202 1.0 5.0 0.00 0.00 0.00 36 1013.8
20260503081107 78 158 0.0 3.0 0.00 0.00 0.00 35 1013.8
20260503080921 77 158 0.0 3.0 0.00 0.00 0.00 36 1013.8
20260503080721 77 202 1.0 3.0 0.00 0.00 0.00 36 1013.9